QPF
0.00 0.00 0.00 0.00 0.02 0.03 0.10 0.10 0.02 0.00 0.00 0.00 0.00 0.03 0.04 0.01 0.01 0.00 0.00 0.00 0.00 0.00 0.00 0.04 0.02 0.00 0.00 0.00 0.00 0.00 0.00 0.00 0.00 0.00 0.00 0.00 0.00 0.00 0.00 0.00 0.00 0.00 0.00 0.00 0.00 0.00 0.01 0.01 0.01
0.00 0.00 0.01 0.00 0.06 0.17 0.18 0.08 0.06 0.03 0.03 0.00 0.00 0.00 0.00 0.00 0.00 0.00 0.00 0.00 0.00 0.00 0.00 0.01 0.00 0.00 0.00 0.00 0.00 0.00 0.00 0.01 0.00 0.00 0.00 0.00 0.00 0.00 0.00 0.00 0.00 0.00 0.00 0.00 0.00 0.00 0.00 0.01 0.02
0.00 0.00 0.01 0.00 0.18 0.30 0.22 0.08 0.01 0.05 0.06 0.02 0.00 0.00 0.00 0.00 0.00 0.00 0.00 0.00 0.00 0.00 0.00 0.00 0.00 0.00 0.00 0.00 0.00 0.00 0.00 0.00 0.00 0.00 0.00 0.00 0.00 0.00 0.00 0.00 0.00 0.00 0.00 0.00 0.01 0.00 0.00 0.00 0.00
0.00 0.00 0.00 0.01 0.03 0.03 0.15 0.06 0.04 0.09 0.05 0.00 0.00 0.00 0.00 0.00 0.00 0.00 0.00 0.00 0.00 0.00 0.00 0.00 0.00 0.00 0.00 0.00 0.00 0.00 0.00 0.00 0.00 0.00 0.00 0.00 0.00 0.00 0.00 0.00 0.00 0.00 0.00 0.00 0.03 0.00 0.00 0.00 0.00
0.00 0.00 0.01 0.11 0.13 0.04 0.05 0.09 0.01 0.00 0.01 0.00 0.00 0.00 0.00 0.00 0.00 0.00 0.00 0.00 0.00 0.00 0.00 0.00 0.00 0.00 0.00 0.00 0.00 0.00 0.01 0.01 0.00 0.00 0.00 0.00 0.00 0.00 0.00 0.00 0.00 0.00 0.00 0.00 0.02 0.00 0.00 0.00 0.00
0.00 0.00 0.07 0.07 0.02 0.01 0.01 0.03 0.00 0.00 0.00 0.00 0.00 0.00 0.00 0.00 0.00 0.00 0.00 0.00 0.00 0.00 0.00 0.00 0.00 0.00 0.00 0.00 0.00 0.00 0.02 0.00 0.00 0.00 0.00 0.00 0.00 0.00 0.00 0.00 0.00 0.00 0.00 0.00 0.00 0.00 0.00 0.00 0.00
0.00 0.00 0.00 0.00 0.00 0.02 0.02 0.00 0.00 0.00 0.00 0.00 0.00 0.00 0.00 0.00 0.00 0.00 0.00 0.00 0.00 0.00 0.00 0.01 0.01 0.00 0.00 0.00 0.00 0.00 0.00 0.00 0.00 0.00 0.00 0.00 0.00 0.03 0.03 0.00 0.00 0.00 0.00 0.00 0.01 0.03 0.02 0.00 0.00
0.00 0.00 0.00 0.00 0.01 0.00 0.00 0.00 0.00 0.00 0.00 0.00 0.00 0.00 0.00 0.00 0.00 0.00 0.00 0.00 0.00 0.00 0.00 0.00 0.00 0.00 0.00 0.00 0.01 0.00 0.00 0.00 0.00 0.00 0.00 0.00 0.00 0.01 0.14 0.06 0.01 0.00 0.00 0.00 0.00 0.02 0.04 0.05 0.03
0.00 0.00 0.00 0.00 0.00 0.00 0.00 0.00 0.00 0.00 0.00 0.00 0.00 0.00 0.00 0.00 0.00 0.00 0.00 0.00 0.00 0.00 0.00 0.00 0.00 0.00 0.00 0.00 0.00 0.00 0.00 0.00 0.00 0.00 0.00 0.00 0.00 0.00 0.02 0.07 0.01 0.00 0.00 0.00 0.00 0.00 0.00 0.04 0.09
0.00 0.00 0.00 0.00 0.00 0.00 0.00 0.00 0.00 0.00 0.00 0.00 0.00 0.00 0.00 0.00 0.00 0.00 0.00 0.00 0.00 0.00 0.00 0.00 0.00 0.00 0.00 0.00 0.00 0.00 0.00 0.00 0.00 0.00 0.00 0.00 0.00 0.00 0.02 0.03 0.02 0.00 0.01 0.06 0.02 0.04 0.00 0.03 0.14
0.00 0.00 0.00 0.00 0.00 0.00 0.00 0.00 0.00 0.00 0.00 0.00 0.00 0.00 0.00 0.00 0.00 0.00 0.00 0.00 0.00 0.00 0.00 0.00 0.00 0.00 0.00 0.00 0.00 0.00 0.00 0.00 0.00 0.00 0.00 0.00 0.00 0.00 0.01 0.00 0.02 0.00 0.09 0.11 0.05 0.03 0.00 0.06 0.08
0.00 0.00 0.00 0.00 0.00 0.00 0.00 0.00 0.00 0.00 0.00 0.00 0.00 0.00 0.00 0.00 0.00 0.00 0.00 0.00 0.00 0.00 0.00 0.00 0.00 0.00 0.00 0.00 0.00 0.00 0.00 0.00 0.00 0.00 0.01 0.00 0.00 0.00 0.00 0.00 0.00 0.00 0.01 0.01 0.00 0.00 0.00 0.02 0.06
0.00 0.00 0.00 0.00 0.00 0.00 0.00 0.00 0.00 0.00 0.00 0.00 0.00 0.00 0.00 0.00 0.00 0.00 0.00 0.00 0.00 0.00 0.00 0.00 0.00 0.00 0.00 0.00 0.00 0.00 0.00 0.00 0.00 0.00 0.01 0.00 0.00 0.00 0.00 0.00 0.00 0.00 0.00 0.00 0.00 0.00 0.00 0.03 0.07
0.00 0.00 0.00 0.00 0.00 0.00 0.00 0.00 0.00 0.00 0.00 0.00 0.00 0.00 0.00 0.00 0.00 0.00 0.00 0.00 0.00 0.00 0.00 0.00 0.00 0.00 0.00 0.00 0.00 0.00 0.00 0.00 0.00 0.00 0.00 0.00 0.00 0.04 0.08 0.06 0.05 0.04 0.01 0.00 0.00 0.00 0.00 0.00 0.00
0.00 0.00 0.00 0.00 0.00 0.00 0.00 0.00 0.00 0.00 0.00 0.00 0.00 0.00 0.00 0.00 0.00 0.00 0.00 0.00 0.00 0.00 0.00 0.00 0.00 0.00 0.00 0.00 0.00 0.00 0.00 0.00 0.03 0.03 0.00 0.00 0.01 0.12 0.12 0.03 0.01 0.00 0.00 0.00 0.00 0.01 0.01 0.00 0.00
0.00 0.00 0.00 0.00 0.00 0.00 0.00 0.00 0.00 0.00 0.00 0.00 0.00 0.00 0.00 0.01 0.00 0.00 0.00 0.00 0.00 0.00 0.00 0.00 0.00 0.00 0.00 0.00 0.00 0.02 0.01 0.00 0.11 0.08 0.00 0.00 0.00 0.06 0.06 0.00 0.00 0.00 0.00 0.00 0.00 0.01 0.00 0.00 0.00
0.00 0.00 0.00 0.00 0.00 0.00 0.00 0.00 0.00 0.00 0.00 0.00 0.00 0.00 0.00 0.05 0.08 0.04 0.00 0.00 0.00 0.00 0.00 0.00 0.00 0.00 0.00 0.00 0.00 0.01 0.04 0.00 0.07 0.13 0.02 0.00 0.00 0.06 0.04 0.00 0.00 0.00 0.00 0.02 0.00 0.00 0.00 0.00 0.00
0.00 0.00 0.00 0.00 0.00 0.00 0.00 0.00 0.00 0.00 0.00 0.00 0.00 0.00 0.00 0.01 0.04 0.12 0.06 0.01 0.00 0.01 0.00 0.00 0.00 0.00 0.00 0.00 0.00 0.02 0.02 0.03 0.04 0.06 0.04 0.00 0.00 0.02 0.04 0.03 0.00 0.00 0.04 0.06 0.00 0.00 0.00 0.00 0.01
0.00 0.00 0.00 0.00 0.00 0.00 0.00 0.00 0.00 0.00 0.00 0.00 0.00 0.00 0.00 0.00 0.02 0.14 0.03 0.04 0.02 0.01 0.02 0.00 0.00 0.00 0.00 0.00 0.00 0.00 0.02 0.05 0.01 0.00 0.04 0.04 0.05 0.23 0.14 0.11 0.01 0.00 0.01 0.00 0.00 0.00 0.01 0.02 0.05
0.00 0.00 0.00 0.00 0.00 0.00 0.00 0.00 0.00 0.00 0.00 0.00 0.00 0.00 0.00 0.00 0.00 0.01 0.01 0.00 0.00 0.00 0.01 0.01 0.00 0.00 0.00 0.02 0.04 0.07 0.15 0.11 0.03 0.05 0.08 0.09 0.10 0.14 0.04 0.11 0.04 0.00 0.00 0.00 0.00 0.00 0.04 0.01 0.03
0.00 0.00 0.00 0.00 0.00 0.00 0.00 0.00 0.00 0.00 0.00 0.00 0.00 0.00 0.00 0.00 0.00 0.00 0.00 0.00 0.00 0.00 0.00 0.01 0.00 0.00 0.04 0.05 0.06 0.08 0.13 0.03 0.04 0.05 0.07 0.09 0.10 0.08 0.07 0.11 0.08 0.02 0.00 0.00 0.00 0.00 0.00 0.00 0.05
0.00 0.00 0.00 0.00 0.00 0.00 0.00 0.00 0.00 0.00 0.00 0.00 0.00 0.00 0.00 0.00 0.00 0.00 0.00 0.00 0.00 0.00 0.00 0.00 0.00 0.01 0.05 0.09 0.04 0.01 0.00 0.02 0.05 0.03 0.01 0.00 0.00 0.00 0.01 0.17 0.12 0.11 0.02 0.01 0.00 0.00 0.00 0.00 0.05
0.00 0.00 0.00 0.00 0.00 0.00 0.00 0.00 0.00 0.00 0.00 0.00 0.00 0.00 0.00 0.00 0.00 0.00 0.00 0.00 0.00 0.00 0.00 0.00 0.00 0.01 0.09 0.12 0.05 0.01 0.00 0.00 0.02 0.03 0.02 0.00 0.00 0.00 0.01 0.10 0.09 0.05 0.01 0.00 0.00 0.00 0.00 0.00 0.03
0.00 0.00 0.00 0.00 0.00 0.00 0.00 0.00 0.00 0.00 0.00 0.00 0.00 0.00 0.00 0.00 0.00 0.00 0.00 0.00 0.00 0.00 0.00 0.00 0.00 0.00 0.07 0.05 0.03 0.01 0.00 0.00 0.01 0.00 0.00 0.00 0.00 0.02 0.00 0.00 0.00 0.00 0.00 0.00 0.00 0.01 0.00 0.00 0.00
0.00 0.00 0.00 0.00 0.00 0.00 0.00 0.00 0.00 0.00 0.00 0.00 0.00 0.00 0.00 0.00 0.00 0.00 0.00 0.00 0.02 0.00 0.01 0.00 0.00 0.01 0.01 0.01 0.01 0.00 0.00 0.00 0.00 0.00 0.00 0.00 0.00 0.00 0.00 0.00 0.05 0.08 0.02 0.00 0.00 0.00 0.00 0.00 0.00
0.00 0.00 0.00 0.00 0.00 0.00 0.00 0.00 0.00 0.00 0.00 0.00 0.00 0.00 0.00 0.00 0.00 0.00 0.00 0.00 0.03 0.01 0.01 0.00 0.00 0.00 0.00 0.00 0.00 0.00 0.00 0.00 0.00 0.00 0.00 0.02 0.02 0.03 0.02 0.05 0.07 0.09 0.03 0.04 0.01 0.00 0.00 0.00 0.00
0.00 0.00 0.00 0.00 0.00 0.00 0.00 0.00 0.00 0.00 0.00 0.00 0.00 0.00 0.00 0.00 0.00 0.00 0.00 0.00 0.00 0.00 0.00 0.00 0.00 0.00 0.00 0.00 0.00 0.00 0.00 0.00 0.00 0.00 0.00 0.03 0.12 0.04 0.02 0.02 0.00 0.00 0.06 0.11 0.02 0.00 0.00 0.00 0.00
0.00 0.00 0.00 0.00 0.00 0.00 0.00 0.00 0.00 0.00 0.00 0.00 0.00 0.00 0.00 0.00 0.00 0.00 0.00 0.00 0.00 0.00 0.00 0.00 0.00 0.00 0.00 0.00 0.00 0.00 0.00 0.06 0.01 0.00 0.00 0.00 0.02 0.05 0.05 0.03 0.00 0.00 0.03 0.16 0.07 0.00 0.01 0.00 0.02
0.00 0.00 0.00 0.00 0.00 0.00 0.00 0.00 0.00 0.00 0.00 0.00 0.00 0.00 0.00 0.00 0.00 0.00 0.00 0.00 0.00 0.00 0.00 0.00 0.00 0.00 0.00 0.00 0.00 0.00 0.00 0.01 0.05 0.00 0.00 0.00 0.00 0.01 0.03 0.00 0.00 0.00 0.00 0.06 0.11 0.02 0.02 0.00 0.01
0.00 0.00 0.00 0.00 0.00 0.00 0.00 0.00 0.00 0.00 0.00 0.00 0.00 0.00 0.00 0.00 0.00 0.00 0.00 0.00 0.00 0.00 0.00 0.00 0.00 0.00 0.00 0.00 0.00 0.00 0.00 0.00 0.01 0.00 0.00 0.00 0.00 0.00 0.00 0.00 0.04 0.03 0.00 0.02 0.06 0.06 0.10 0.08 0.02
MSLP
1007.00 1007.32 1007.72 1007.91 1008.83 1009.06 1009.04 1007.57 1006.26 1005.96 1005.60 1005.57 1005.94 1006.46 1007.07 1007.68 1008.35 1009.87 1009.51 1009.87 1010.60 1011.51 1011.82 1012.25 1012.50 1012.87 1013.23 1013.54 1013.79 1014.05 1014.16 1014.39 1014.46 1014.66 1014.82 1014.93 1015.25 1015.48 1015.65 1015.80 1015.97 1016.06 1016.13 1016.24 1016.26 1016.40 1016.40 1016.46 1016.65
1006.99 1007.53 1007.63 1007.74 1009.41 1009.98 1009.43 1007.96 1007.38 1006.34 1005.97 1005.80 1006.07 1006.61 1007.32 1007.95 1008.39 1009.20 1009.70 1010.07 1010.58 1011.36 1011.91 1012.38 1012.71 1013.11 1013.50 1013.84 1014.02 1014.12 1014.29 1014.53 1014.82 1014.96 1015.09 1015.19 1015.35 1015.65 1015.93 1016.07 1016.10 1016.21 1016.28 1016.36 1016.42 1016.53 1016.65 1016.80 1016.88
1006.58 1006.70 1007.59 1008.50 1009.56 1009.96 1009.23 1007.82 1007.08 1006.35 1006.05 1005.97 1006.33 1006.70 1007.69 1008.46 1008.97 1009.58 1009.74 1010.25 1010.73 1011.46 1012.02 1012.54 1012.91 1013.34 1013.68 1014.04 1014.24 1014.33 1014.44 1014.65 1014.99 1015.17 1015.29 1015.39 1015.57 1015.76 1016.04 1016.23 1016.37 1016.51 1016.50 1016.59 1016.63 1016.62 1016.75 1016.96 1017.07
1006.06 1007.08 1008.17 1008.47 1009.22 1008.93 1008.47 1007.02 1005.89 1006.07 1005.71 1005.94 1006.61 1007.39 1008.06 1008.22 1009.06 1009.67 1010.29 1010.69 1011.16 1011.77 1012.14 1012.63 1013.14 1013.55 1013.93 1014.12 1014.43 1014.62 1014.65 1014.79 1015.08 1015.38 1015.52 1015.65 1015.71 1015.93 1016.11 1016.37 1016.58 1016.71 1016.74 1016.75 1016.71 1016.76 1016.83 1017.04 1017.16
1006.43 1007.43 1008.42 1008.69 1008.82 1008.15 1007.60 1007.13 1006.52 1005.93 1006.02 1006.26 1006.62 1007.98 1008.77 1009.29 1009.31 1010.02 1010.64 1010.99 1011.26 1012.06 1012.40 1012.77 1013.33 1013.69 1014.10 1014.38 1014.71 1014.84 1014.84 1014.92 1015.17 1015.47 1015.71 1015.79 1015.87 1016.05 1016.29 1016.57 1016.79 1016.88 1016.86 1016.98 1017.05 1016.98 1016.97 1017.07 1017.36
1006.76 1007.67 1008.58 1008.57 1007.83 1006.79 1006.00 1005.55 1005.91 1005.78 1006.19 1006.74 1007.33 1008.17 1009.41 1009.51 1009.61 1010.44 1010.88 1011.34 1011.67 1012.04 1012.49 1012.92 1013.44 1013.84 1014.23 1014.49 1014.79 1015.01 1015.14 1015.19 1015.35 1015.53 1015.76 1015.94 1016.03 1016.20 1016.43 1016.63 1016.88 1017.01 1017.12 1017.10 1017.15 1017.22 1017.24 1017.28 1017.49
1006.81 1007.77 1008.01 1007.83 1007.02 1005.59 1005.08 1004.87 1005.29 1005.61 1006.10 1006.61 1007.13 1008.50 1009.94 1010.10 1010.06 1010.23 1010.92 1011.43 1011.96 1012.15 1012.60 1013.01 1013.48 1013.80 1014.16 1014.53 1014.82 1015.02 1015.13 1015.30 1015.42 1015.60 1015.79 1016.05 1016.19 1016.27 1016.49 1016.75 1016.87 1016.94 1017.12 1017.20 1017.25 1017.35 1017.51 1017.51 1017.62
1006.64 1007.36 1007.51 1007.33 1006.03 1005.00 1004.38 1004.56 1004.95 1005.31 1006.04 1006.42 1007.05 1008.16 1009.63 1009.85 1010.27 1010.77 1011.34 1011.56 1012.12 1012.50 1012.72 1013.06 1013.50 1013.86 1014.16 1014.59 1014.81 1015.08 1015.22 1015.30 1015.50 1015.65 1015.83 1015.99 1016.20 1016.29 1016.30 1016.73 1016.94 1017.02 1017.06 1017.16 1017.12 1017.27 1017.63 1017.79 1017.84
1006.33 1007.12 1007.04 1006.35 1005.29 1004.43 1003.90 1004.42 1005.36 1005.33 1005.82 1006.13 1006.68 1007.28 1007.83 1009.61 1010.53 1011.27 1011.67 1012.14 1012.47 1012.77 1013.03 1013.18 1013.58 1014.09 1014.36 1014.70 1014.85 1015.09 1015.24 1015.32 1015.55 1015.77 1015.92 1016.03 1016.34 1016.54 1016.65 1016.83 1016.91 1017.03 1017.11 1017.12 1017.09 1017.22 1017.48 1017.79 1018.17
1005.98 1006.55 1005.77 1004.86 1004.30 1003.97 1003.98 1004.05 1004.77 1005.41 1005.97 1006.56 1006.78 1007.42 1008.62 1009.71 1010.58 1011.13 1011.67 1012.00 1012.55 1012.91 1013.25 1013.39 1013.61 1014.02 1014.34 1014.54 1014.83 1015.12 1015.20 1015.42 1015.58 1015.79 1016.00 1016.38 1016.54 1016.77 1016.80 1016.84 1016.85 1016.89 1017.05 1017.15 1017.21 1017.24 1017.40 1017.64 1018.19
1005.61 1005.29 1004.21 1003.58 1003.34 1003.69 1004.12 1004.12 1004.19 1005.02 1005.66 1005.99 1006.80 1007.64 1008.77 1009.70 1010.52 1010.96 1011.33 1011.35 1011.99 1012.62 1013.23 1013.47 1013.63 1013.95 1014.30 1014.40 1014.76 1015.02 1015.26 1015.48 1015.63 1015.80 1016.15 1016.47 1016.63 1016.80 1017.00 1017.06 1017.02 1016.98 1017.04 1017.43 1017.40 1017.42 1017.53 1017.76 1018.06
1004.62 1003.62 1003.40 1002.81 1002.48 1003.16 1003.62 1003.78 1004.30 1004.46 1004.61 1005.06 1006.57 1007.37 1008.40 1009.54 1010.26 1010.69 1011.30 1011.68 1011.94 1012.48 1012.86 1013.34 1013.47 1013.87 1014.25 1014.50 1014.67 1014.88 1015.11 1015.41 1015.64 1015.76 1016.01 1016.46 1016.76 1016.82 1016.86 1016.98 1017.10 1017.09 1017.12 1017.33 1017.40 1017.63 1017.59 1017.83 1018.08
1003.92 1003.02 1002.55 1002.39 1002.38 1002.63 1003.29 1003.82 1004.41 1004.80 1004.95 1005.63 1006.68 1007.74 1008.48 1009.29 1009.89 1010.51 1010.86 1011.53 1012.03 1012.43 1012.64 1012.97 1013.37 1013.66 1013.97 1014.39 1014.54 1014.77 1014.95 1015.07 1015.27 1015.74 1015.92 1016.04 1016.47 1016.82 1016.84 1016.91 1017.03 1017.10 1017.17 1017.33 1017.45 1017.59 1017.55 1017.62 1017.97
1002.99 1002.77 1002.09 1002.33 1002.47 1002.78 1003.41 1004.32 1004.50 1005.36 1005.76 1006.18 1006.77 1007.57 1008.18 1008.63 1009.38 1010.04 1010.55 1011.10 1011.58 1011.99 1012.33 1012.71 1012.92 1013.29 1013.61 1014.13 1014.26 1014.46 1014.73 1014.89 1015.27 1015.50 1015.69 1015.89 1016.11 1016.42 1016.63 1016.80 1016.89 1016.80 1016.96 1017.06 1017.23 1017.28 1017.29 1017.33 1017.63
1002.45 1002.45 1002.54 1002.82 1002.66 1003.07 1003.54 1004.67 1004.63 1005.27 1005.96 1006.39 1007.04 1007.38 1007.82 1008.38 1008.89 1008.99 1009.59 1010.37 1010.68 1011.14 1011.71 1012.24 1012.70 1012.89 1013.26 1013.60 1013.80 1013.97 1014.28 1014.63 1015.00 1015.22 1015.41 1015.70 1015.95 1016.26 1016.46 1016.60 1016.76 1016.51 1016.70 1016.87 1016.96 1016.98 1017.07 1017.34 1017.40
1002.92 1002.79 1003.01 1002.87 1002.90 1003.34 1003.75 1004.68 1004.69 1005.70 1005.95 1006.53 1006.92 1007.47 1007.52 1007.61 1007.86 1008.72 1009.14 1009.71 1010.22 1010.56 1011.07 1011.67 1012.02 1012.56 1012.76 1012.90 1013.22 1013.62 1013.94 1014.26 1014.77 1014.83 1015.02 1015.39 1015.62 1016.02 1016.31 1016.43 1016.56 1016.38 1016.48 1016.64 1016.83 1016.96 1017.18 1017.32 1017.35
1004.01 1003.78 1003.35 1002.91 1002.63 1003.03 1003.90 1004.53 1004.96 1005.59 1006.08 1006.32 1007.02 1007.35 1007.58 1008.01 1007.99 1008.38 1008.07 1008.58 1009.59 1009.74 1010.44 1011.08 1011.63 1011.80 1012.25 1012.53 1012.67 1013.15 1013.64 1013.91 1014.38 1014.77 1014.82 1014.96 1015.20 1015.51 1015.99 1016.00 1015.99 1016.18 1016.26 1016.52 1016.68 1016.83 1016.95 1017.19 1017.34
1005.17 1004.82 1003.92 1003.53 1002.84 1002.95 1003.54 1004.27 1004.88 1005.72 1005.87 1006.16 1007.23 1007.45 1007.81 1007.67 1007.48 1006.84 1006.66 1007.05 1007.84 1009.28 1009.68 1010.39 1010.95 1011.34 1011.74 1012.25 1012.70 1013.05 1013.41 1013.62 1013.88 1014.28 1014.45 1014.45 1014.90 1015.17 1015.62 1015.74 1015.71 1015.80 1016.08 1016.19 1016.24 1016.54 1016.77 1016.88 1017.01
1005.13 1004.99 1004.43 1003.05 1002.63 1002.72 1003.37 1004.29 1005.16 1005.42 1005.71 1006.53 1007.12 1007.82 1007.88 1007.47 1007.03 1006.54 1006.50 1005.95 1006.90 1008.27 1009.31 1009.79 1010.45 1010.91 1011.57 1012.18 1012.54 1012.88 1012.99 1013.29 1013.62 1013.71 1013.88 1014.38 1014.68 1014.93 1015.21 1015.52 1015.55 1015.37 1015.69 1015.86 1016.04 1016.25 1016.48 1016.88 1017.06
1004.92 1004.67 1004.04 1003.17 1002.21 1002.64 1003.52 1004.63 1005.11 1005.44 1005.59 1006.04 1006.50 1007.46 1007.71 1007.54 1007.42 1006.93 1006.94 1006.46 1007.04 1007.73 1008.64 1009.41 1009.74 1010.40 1010.75 1011.38 1011.99 1012.36 1012.93 1013.09 1013.31 1013.43 1013.64 1014.01 1014.34 1014.70 1014.88 1015.01 1015.21 1015.37 1015.57 1015.82 1015.76 1015.84 1016.30 1016.52 1016.83
1004.47 1004.43 1003.79 1003.56 1003.16 1003.01 1003.93 1005.13 1005.47 1005.44 1005.49 1005.67 1006.21 1006.74 1007.18 1006.63 1006.27 1005.79 1006.60 1006.97 1007.07 1007.50 1007.94 1008.62 1009.15 1009.92 1010.82 1011.21 1011.78 1012.47 1013.10 1013.39 1013.73 1014.12 1013.91 1014.29 1014.07 1014.18 1014.44 1014.56 1014.75 1015.01 1015.27 1015.40 1015.33 1015.47 1015.89 1016.30 1016.58
1004.25 1003.34 1003.95 1003.35 1003.59 1004.47 1005.08 1006.13 1005.95 1005.34 1004.96 1005.06 1005.64 1005.82 1006.13 1005.78 1005.71 1006.02 1006.21 1006.65 1007.33 1007.46 1008.09 1008.41 1009.19 1009.73 1010.37 1010.87 1011.54 1011.80 1012.07 1012.87 1013.20 1013.98 1013.42 1014.10 1014.17 1014.01 1013.98 1014.04 1014.18 1014.51 1014.82 1014.92 1014.92 1015.14 1015.51 1015.93 1016.23
1003.50 1003.21 1003.93 1003.99 1004.73 1005.49 1006.22 1006.50 1005.51 1005.64 1005.43 1005.12 1005.20 1005.15 1005.05 1004.92 1005.16 1005.58 1006.15 1006.53 1007.14 1007.49 1007.93 1008.28 1009.13 1009.78 1010.24 1010.89 1010.86 1011.45 1011.88 1012.22 1012.40 1013.35 1013.30 1013.72 1013.88 1013.65 1013.57 1013.63 1013.50 1013.92 1014.28 1014.38 1014.57 1014.70 1015.18 1015.45 1015.71
1003.07 1003.89 1004.48 1005.37 1006.11 1007.00 1007.21 1007.24 1005.97 1005.52 1004.57 1004.40 1004.35 1004.22 1004.32 1004.34 1004.81 1005.82 1006.33 1006.39 1006.85 1007.13 1007.88 1008.24 1009.00 1009.41 1009.84 1010.42 1010.66 1010.99 1011.52 1011.98 1012.56 1013.18 1013.37 1013.45 1013.54 1013.41 1013.29 1013.16 1013.24 1013.42 1013.75 1013.90 1013.91 1014.23 1014.64 1014.90 1015.24
1003.63 1004.82 1005.80 1006.98 1007.41 1008.25 1007.83 1007.62 1005.13 1003.80 1003.52 1003.28 1003.37 1003.03 1003.41 1003.64 1004.31 1005.36 1006.02 1006.49 1006.83 1007.30 1007.65 1008.15 1008.56 1009.01 1009.43 1009.98 1010.48 1010.72 1011.18 1011.70 1012.09 1012.47 1012.80 1013.16 1013.32 1013.11 1012.98 1013.00 1013.08 1013.09 1013.26 1013.49 1013.63 1013.84 1014.12 1014.44 1014.88
1003.38 1004.46 1005.81 1007.08 1008.26 1008.50 1008.04 1006.91 1004.12 1002.75 1002.57 1002.61 1002.29 1002.17 1002.47 1003.05 1003.61 1004.72 1005.30 1005.72 1006.33 1006.94 1007.32 1007.72 1008.15 1008.66 1009.14 1009.71 1010.09 1010.42 1010.84 1011.48 1011.84 1012.03 1012.46 1012.71 1012.77 1012.73 1012.94 1012.99 1012.79 1012.31 1012.59 1013.21 1013.31 1013.48 1013.71 1014.03 1014.41
1002.93 1004.14 1004.50 1006.77 1008.60 1008.51 1007.81 1006.29 1003.80 1002.48 1002.24 1002.00 1002.20 1001.97 1002.11 1002.26 1003.22 1004.18 1004.82 1005.39 1005.75 1006.43 1006.88 1007.28 1007.87 1008.43 1009.06 1009.50 1009.73 1009.90 1010.44 1011.08 1011.68 1011.75 1011.94 1012.14 1012.37 1012.36 1012.63 1012.56 1012.60 1012.61 1012.73 1012.85 1013.09 1013.14 1013.43 1013.67 1013.98
1002.17 1002.88 1004.65 1006.57 1008.37 1008.91 1007.94 1006.65 1004.39 1002.85 1002.17 1001.50 1001.45 1001.87 1001.81 1002.01 1002.90 1003.71 1004.02 1004.65 1005.43 1006.00 1006.59 1007.24 1007.62 1008.13 1008.67 1009.05 1009.33 1009.48 1009.69 1010.85 1011.20 1011.42 1011.58 1011.72 1011.77 1011.94 1012.04 1012.21 1012.52 1012.54 1012.74 1012.59 1012.62 1012.85 1013.15 1013.42 1013.64
1002.37 1003.08 1004.66 1006.00 1007.33 1008.12 1007.79 1006.34 1003.31 1002.65 1002.09 1001.77 1001.49 1001.19 1001.24 1001.61 1002.19 1003.06 1003.78 1004.25 1004.93 1005.70 1006.35 1007.04 1007.61 1007.87 1008.28 1008.49 1008.91 1009.15 1009.26 1010.47 1010.89 1011.03 1011.19 1011.33 1011.30 1011.42 1011.56 1011.84 1012.27 1012.40 1012.46 1012.37 1012.61 1012.82 1013.00 1013.29 1013.48
1001.99 1002.66 1003.64 1005.45 1007.29 1007.28 1006.62 1004.56 1002.56 1002.17 1001.84 1001.64 1001.24 1000.99 1000.93 1001.44 1002.23 1002.82 1003.41 1004.04 1004.75 1005.31 1006.19 1006.78 1007.17 1007.57 1007.93 1008.08 1008.37 1008.88 1009.44 1010.12 1010.47 1010.62 1010.76 1010.86 1010.88 1011.06 1011.24 1011.59 1012.14 1012.34 1012.41 1012.38 1012.49 1012.56 1012.78 1013.09 1013.34
Thickness
5836 5833 5830 5818 5781 5776 5763 5788 5815 5806 5807 5821 5823 5812 5805 5806 5797 5775 5808 5807 5802 5793 5788 5784 5781 5778 5776 5773 5771 5769 5767 5765 5765 5764 5762 5760 5757 5756 5754 5751 5749 5750 5749 5748 5749 5747 5748 5749 5747
5837 5829 5822 5809 5765 5750 5757 5797 5790 5803 5816 5823 5821 5814 5804 5795 5811 5804 5802 5808 5803 5795 5789 5784 5780 5776 5773 5771 5770 5770 5767 5765 5763 5762 5759 5758 5756 5754 5752 5750 5749 5748 5749 5748 5748 5748 5748 5747 5746
5842 5838 5808 5787 5762 5751 5764 5796 5801 5814 5824 5822 5813 5818 5805 5795 5806 5804 5811 5808 5803 5796 5789 5783 5779 5775 5773 5770 5768 5768 5767 5764 5762 5761 5759 5757 5755 5753 5751 5749 5748 5747 5747 5747 5748 5749 5748 5747 5746
5839 5825 5811 5780 5770 5783 5785 5808 5822 5817 5829 5830 5818 5800 5811 5821 5810 5810 5809 5806 5800 5794 5789 5784 5778 5775 5771 5769 5766 5765 5766 5764 5761 5758 5757 5756 5755 5753 5752 5750 5748 5746 5747 5747 5747 5747 5748 5746 5746
5835 5814 5786 5779 5777 5792 5801 5808 5816 5816 5818 5820 5819 5795 5796 5809 5816 5811 5806 5804 5800 5793 5787 5783 5777 5774 5771 5768 5765 5764 5764 5763 5761 5758 5757 5755 5755 5753 5751 5750 5748 5747 5747 5746 5745 5747 5747 5746 5743
5813 5811 5778 5774 5785 5808 5819 5825 5821 5823 5821 5817 5810 5802 5794 5812 5812 5807 5805 5800 5797 5793 5788 5783 5777 5773 5770 5768 5765 5764 5763 5761 5760 5758 5756 5755 5754 5753 5751 5750 5748 5747 5746 5746 5746 5746 5746 5745 5742
5807 5795 5786 5790 5795 5810 5819 5835 5819 5819 5817 5815 5822 5795 5794 5802 5811 5811 5805 5801 5795 5791 5787 5782 5778 5775 5771 5768 5766 5764 5763 5762 5760 5757 5755 5753 5753 5753 5752 5750 5749 5748 5747 5747 5747 5746 5744 5742 5741
5817 5807 5791 5790 5795 5808 5831 5830 5833 5825 5817 5834 5827 5794 5788 5804 5809 5806 5801 5799 5792 5789 5786 5782 5779 5775 5772 5767 5765 5763 5762 5762 5760 5758 5754 5752 5752 5754 5754 5751 5749 5748 5747 5747 5748 5749 5746 5742 5740
5829 5795 5783 5793 5805 5819 5838 5824 5832 5838 5824 5831 5831 5822 5823 5812 5806 5798 5795 5790 5787 5784 5783 5782 5778 5773 5770 5766 5765 5763 5762 5762 5760 5758 5755 5753 5754 5753 5753 5752 5750 5749 5748 5748 5749 5749 5748 5745 5739
5818 5789 5800 5823 5828 5827 5835 5833 5829 5821 5819 5817 5823 5827 5820 5810 5801 5793 5789 5786 5782 5780 5779 5781 5778 5773 5770 5767 5765 5763 5763 5762 5761 5760 5758 5755 5755 5753 5753 5752 5752 5752 5749 5748 5748 5747 5747 5746 5741
5818 5800 5826 5836 5840 5842 5832 5833 5841 5822 5813 5821 5814 5816 5815 5808 5799 5795 5793 5793 5787 5784 5778 5779 5777 5773 5770 5769 5766 5765 5764 5762 5761 5760 5758 5756 5756 5754 5752 5752 5752 5752 5751 5749 5747 5747 5746 5744 5742
5817 5835 5838 5845 5852 5842 5833 5840 5829 5832 5833 5840 5827 5823 5817 5806 5798 5795 5792 5790 5789 5784 5781 5779 5778 5774 5769 5767 5766 5765 5764 5763 5761 5760 5758 5756 5755 5756 5754 5753 5752 5753 5752 5751 5749 5747 5746 5743 5741
5822 5834 5846 5849 5851 5847 5843 5833 5829 5829 5838 5838 5829 5819 5814 5809 5802 5797 5796 5792 5788 5783 5782 5782 5779 5775 5771 5769 5767 5765 5765 5765 5763 5759 5757 5758 5757 5754 5754 5754 5753 5753 5751 5750 5750 5748 5747 5746 5743
5839 5839 5846 5845 5843 5843 5830 5826 5831 5827 5833 5827 5823 5816 5814 5813 5808 5801 5794 5789 5788 5787 5783 5782 5782 5778 5773 5770 5770 5767 5765 5764 5762 5760 5758 5758 5758 5757 5756 5755 5754 5755 5753 5751 5750 5750 5749 5748 5744
5842 5827 5834 5833 5838 5835 5838 5817 5819 5830 5829 5822 5816 5816 5817 5813 5810 5808 5803 5793 5793 5790 5788 5783 5780 5782 5777 5773 5771 5769 5766 5763 5762 5760 5759 5758 5757 5757 5757 5756 5756 5756 5755 5752 5751 5751 5750 5749 5746
5823 5823 5800 5829 5836 5835 5832 5793 5822 5827 5824 5816 5815 5814 5815 5816 5817 5816 5809 5801 5797 5793 5790 5788 5786 5781 5781 5779 5773 5769 5767 5764 5761 5761 5759 5759 5758 5757 5757 5756 5757 5757 5756 5756 5754 5754 5751 5749 5748
5800 5788 5801 5814 5838 5833 5823 5804 5821 5828 5822 5818 5815 5817 5816 5808 5810 5811 5821 5815 5802 5800 5793 5790 5787 5786 5782 5780 5776 5771 5766 5766 5763 5760 5759 5759 5759 5759 5758 5759 5759 5758 5758 5757 5757 5756 5754 5751 5749
5777 5782 5797 5797 5828 5830 5819 5813 5821 5822 5824 5821 5813 5813 5805 5808 5807 5815 5818 5825 5819 5804 5798 5792 5788 5785 5784 5780 5775 5770 5768 5767 5765 5762 5761 5760 5759 5759 5759 5759 5759 5759 5758 5758 5760 5758 5756 5755 5752
5797 5791 5788 5813 5833 5827 5815 5814 5811 5820 5823 5816 5810 5804 5803 5807 5815 5818 5814 5822 5824 5812 5801 5795 5789 5787 5781 5776 5773 5770 5768 5765 5765 5764 5763 5760 5759 5758 5759 5758 5759 5760 5759 5760 5760 5759 5756 5753 5752
5799 5793 5793 5814 5836 5828 5819 5810 5815 5817 5821 5819 5815 5807 5802 5804 5804 5809 5811 5818 5818 5813 5807 5800 5795 5789 5787 5782 5777 5774 5768 5766 5765 5763 5762 5761 5760 5758 5758 5759 5759 5759 5757 5757 5759 5759 5754 5753 5752
5796 5791 5796 5797 5820 5826 5815 5795 5803 5817 5824 5825 5821 5817 5810 5814 5818 5822 5813 5812 5815 5812 5810 5805 5800 5792 5784 5780 5776 5770 5765 5762 5758 5754 5757 5756 5759 5760 5759 5760 5760 5759 5758 5757 5760 5760 5756 5750 5751
5780 5818 5809 5816 5803 5778 5804 5758 5789 5806 5816 5824 5822 5822 5817 5820 5825 5821 5819 5813 5810 5810 5806 5804 5795 5791 5785 5780 5775 5772 5769 5759 5756 5752 5757 5754 5754 5758 5760 5761 5760 5759 5758 5758 5760 5761 5757 5754 5749
5797 5823 5811 5812 5791 5787 5786 5769 5788 5801 5799 5813 5820 5825 5827 5829 5828 5826 5819 5816 5810 5808 5803 5801 5791 5787 5783 5776 5776 5772 5768 5766 5761 5755 5755 5753 5753 5756 5760 5760 5762 5761 5759 5760 5759 5758 5757 5757 5754
5821 5809 5795 5783 5774 5752 5773 5766 5772 5782 5801 5816 5825 5831 5834 5832 5828 5820 5816 5816 5811 5809 5801 5797 5789 5786 5785 5777 5774 5773 5769 5763 5757 5752 5751 5751 5752 5756 5759 5760 5761 5761 5760 5760 5758 5761 5760 5760 5758
5801 5773 5741 5745 5741 5742 5763 5758 5780 5816 5822 5830 5830 5839 5840 5838 5830 5819 5813 5810 5807 5801 5798 5792 5790 5787 5785 5777 5774 5773 5769 5764 5759 5757 5754 5752 5752 5756 5760 5761 5760 5761 5761 5761 5762 5762 5762 5761 5759
5787 5778 5745 5736 5726 5745 5763 5758 5794 5832 5838 5838 5845 5849 5850 5842 5836 5824 5817 5813 5807 5802 5796 5793 5792 5788 5784 5777 5775 5774 5771 5764 5759 5760 5756 5754 5754 5756 5757 5758 5760 5764 5759 5758 5762 5762 5762 5762 5761
5796 5773 5798 5745 5734 5739 5752 5776 5814 5834 5835 5838 5836 5841 5843 5844 5836 5826 5820 5815 5812 5805 5797 5794 5791 5788 5781 5777 5776 5777 5772 5766 5759 5762 5760 5758 5756 5757 5756 5757 5756 5757 5756 5758 5758 5759 5759 5761 5761
5803 5809 5772 5751 5730 5732 5742 5755 5770 5814 5823 5836 5842 5833 5842 5844 5834 5827 5825 5820 5815 5807 5800 5795 5793 5787 5783 5780 5778 5779 5778 5765 5763 5763 5761 5759 5759 5758 5757 5755 5753 5754 5753 5754 5752 5755 5757 5759 5760
5788 5782 5770 5765 5747 5729 5726 5749 5802 5812 5826 5829 5836 5843 5845 5843 5838 5831 5825 5823 5818 5810 5804 5796 5790 5788 5784 5782 5779 5779 5781 5767 5764 5764 5763 5761 5763 5759 5756 5754 5751 5751 5749 5748 5746 5748 5752 5755 5759
5802 5791 5780 5754 5749 5744 5744 5757 5823 5823 5829 5832 5834 5843 5849 5846 5839 5834 5829 5825 5817 5812 5803 5796 5793 5789 5786 5785 5783 5780 5775 5769 5766 5765 5764 5763 5764 5762 5757 5752 5748 5748 5747 5744 5743 5745 5747 5752 5755